Flag for Australia Weather past 2 weeks in Rockhampton, Queensland, Australia

Now
73 °F

Drizzle. Partly sunny.


Feels Like: 73 °F
Forecast: 70 / 84 °F
Wind: 7 mph from Southeast

Location: Rockhampton Airport

Current Time: Apr 1, 2015 at 10:02:33 AM

Latest Report: Apr 1, 2015 at 9:00 AM


Visibility: N/A

Pressure: 30.07 "Hg

Humidity: 83%

Dew point: 68 °F

Location of RockhamptonLocation

Historic Weather in Rockhampton — Graph

°F

Rockhampton temperature yesterday

Maximum temperature yesterday: 88 °F (at 2:30 PM)
Minimum temperature yesterday: 70 °F (at 2:00 AM)
Average temperature yesterday: 77 °F

Past Weeks' High & Low Weather Summary

 TemperatureHumidityPressure
High99 °F (Mar 20, 2:00 PM)94% (Mar 18, 4:30 AM)30.15 "Hg (Mar 18, 4:30 AM)
Low68 °F (Mar 18, 2:30 AM)32% (Mar 18, 1:00 PM)29.83 "Hg (Mar 19, 3:30 PM)
Average80 °F69%29.99 "Hg
* Reported Mar 17 9:00 AM — Apr 1 9:00 AM, Rockhampton, Weather by CustomWeather, © 2015

Note: Actual official high and low records may vary slightly from our data, if they occured in-between our weather recording intervals... More about our weather records

Advertising

Rockhampton weather history for previous 24 hours

 ConditionsComfort  
Time TempWeatherWind HumidityBarometerVisibility
9:00 AM
Wed, Apr 1
73 °FDrizzle. Partly sunny.7 mph83%30.07 "HgN/A
8:30 AM73 °FDrizzle. Partly sunny.8 mph83%30.07 "HgN/A
8:00 AM73 °FPartly sunny.6 mph83%30.04 "HgN/A
7:00 AM70 °FScattered clouds.1 mph94%30.04 "HgN/A
6:30 AM70 °FScattered clouds.6 mph88%30.01 "HgN/A
6:00 AM70 °FScattered clouds.2 mph88%30.01 "HgN/A
5:30 AM70 °FSprinkles. Broken clouds.8 mph88%30.01 "HgN/A
5:00 AM70 °FPassing clouds.5 mph88%30.01 "HgN/A
4:00 AM70 °FClear.5 mph88%29.98 "HgN/A
3:30 AM70 °FClear.6 mph88%29.98 "HgN/A
3:00 AM70 °FClear.6 mph88%29.98 "HgN/A
2:30 AM70 °FClear.7 mph88%30.01 "HgN/A
2:00 AM70 °FClear.8 mph88%30.04 "HgN/A
1:30 AM70 °FOvercast.6 mph94%30.04 "HgN/A
1:00 AM70 °FPassing clouds.6 mph94%30.04 "HgN/A
12:30 AM70 °FLight rain. Passing clouds.7 mph94%30.07 "HgN/A
12:00 AM70 °FRain. Overcast.8 mph94%30.07 "HgN/A
11:00 PM
Tue, Mar 31
72 °FLight rain. Mostly cloudy.9 mph83%30.07 "HgN/A
10:00 PM72 °FClear.8 mph88%30.09 "Hg10 mi
9:30 PM73 °FClear.10 mph78%30.07 "Hg10 mi
9:00 PM73 °FClear.7 mph83%30.09 "Hg10 mi
8:00 PM73 °FDrizzle. Overcast.9 mph83%30.07 "HgN/A
7:30 PM73 °FLight rain. Mostly cloudy.9 mph83%30.07 "HgN/A
7:00 PM73 °FLight rain. Passing clouds.9 mph83%30.07 "HgN/A
6:00 PM77 °FPassing clouds.1 mph74%30.04 "HgN/A
5:30 PM79 °FPartly cloudy.3 mph65%30.01 "HgN/A
5:00 PM79 °FPartly cloudy.5 mph65%30.01 "HgN/A
4:30 PM82 °FSprinkles. Partly sunny.9 mph51%29.98 "HgN/A
4:00 PM82 °FBroken clouds.8 mph55%30.01 "HgN/A
3:30 PM84 °FWarm.12 mph51%29.98 "HgN/A
3:00 PM84 °FBroken clouds.10 mph51%29.98 "HgN/A
2:30 PM88 °FBroken clouds.13 mph46%30.01 "HgN/A
2:00 PM86 °FScattered clouds.13 mph49%30.01 "HgN/A
1:30 PM86 °FSunny.13 mph52%30.01 "HgN/A
1:00 PM86 °FPassing clouds.16 mph52%30.04 "HgN/A
12:30 PM84 °FPartly sunny.13 mph55%30.04 "HgN/A
12:00 PM84 °FPartly sunny.15 mph55%30.07 "HgN/A
11:30 AM82 °FPartly sunny.14 mph58%30.07 "HgN/A
11:00 AM82 °FPartly sunny.14 mph62%30.09 "HgN/A
10:30 AM82 °FPartly sunny.13 mph58%30.09 "HgN/A
10:00 AM82 °FScattered clouds.14 mph62%30.09 "HgN/A
Weather by CustomWeather, © 2015

See weather overviewHow to use our weather pages